Back to catalog

COSMOS 1275 DEB

AlivePO
NORAD 17792·DEBRIS·🇷🇺 Russia

Launched Jun 4, 1981 from Plesetsk Cosmodrome

Loading…

Next Passes (next 24 hours)

TLE

FreshSource: Space-Track

Epoch: Sep 14, 2026, 22:22 UTC

1 17792U 81053LN  26257.93246868  .00001466  00000-0  76770-3 0  9998
2 17792  82.9556 180.3922 0013576 335.5172 141.8320 14.13675805109319

Track COSMOS 1275 DEB in real time with AllMySat

Download on the App Store